Location: East Arcadia
(34.1056°N, 118.0176°W)
Time: 01:51:45
(UTC+00:00)

Nadezhda 3 Rocket - Pass Details

Date: 01 April 2023
Orbit: 956 x 999 km, 82.9° (Epoch: 08 June)

Event Time Altitude Azimuth Distance (km) Brightness Sun altitude
Rises 12:03:20 0° 345° (NNW) 3,702 7.1 -20.2°
Reaches altitude 10° 12:05:58 10° 339° (NNW) 2,756 6.3 -19.7°
Maximum altitude 12:11:51 42° 270° (W) 1,384 4.3 -18.5°
Enters shadow 12:17:29 11° 203° (SSW) 2,669 5.9 -17.4°
